[[{"header":{"parameterUnit":"m.s-1","parameterCategory":1,"la1":30.2991,"la2":30.254,"lo1":-89.0895,"lo2":-89.0444,"dy":0.0017,"dx":0.0017,"nx":28,"ny":28,"refTime":"2024-07-28T21:00:00:Z","depth":0,"parameterNumber":2,"parameterNumberName":"U-component_of_WINDS"},"data":[0,0,0,0,0,0,0,0,0,0,0,0,0,0,0,0,0,0,0,0,0,0,0,0,0,0,0,0,0,0,0,0,0,0,0,0,0,0,0,0,0,0,0,0,0,0,0,0,0,0,0,0,0,0,0,0,0,0,3.4781,3.4782,0,3.4819,3.4819,3.482,3.4777,3.4776,3.4774,3.4773,3.4812,3.4815,3.4817,0,0,0,0,0,0,0,0,0,0,0,0,0,3.4676,3.4678,3.4781,3.4782,3.4782,3.4819,3.4819,3.482,3.4778,3.4776,3.4774,3.4772,3.4812,3.4815,3.4818,0,0,0,0,0,0,0,0,0,0,0,0,0,3.4718,3.4679,3.4781,3.4765,3.4764,3.4819,3.4819,3.482,3.4778,3.4776,3.4773,3.4771,3.4811,3.4814,3.4818,3.489,0,0,3.483,3.4831,0,0,0,0,0,0,0,0,3.4716,3.4722,3.4767,3.4767,3.4766,3.4791,3.4797,3.4843,3.4779,3.4773,3.4773,3.477,3.4807,3.4811,3.4824,3.4892,3.4893,3.483,3.4832,3.4834,3.4835,0,0,0,0,0,0,0,3.4713,3.472,3.4796,3.4768,3.4767,3.4758,3.4761,3.4805,3.4803,3.4773,3.477,3.4775,3.4806,3.482,3.4824,3.4894,3.483,3.4833,3.4836,3.4837,3.5026,3.5028,0,0,0,0,0,0,3.4712,3.4718,3.4795,3.4797,3.4734,3.4761,3.4765,3.4785,3.4803,3.4803,3.4777,3.4773,3.4815,3.482,3.4825,3.4912,3.4834,3.4838,3.484,3.5023,3.5026,3.5029,0,0,0,0,0,0,3.471,3.4719,3.4793,3.4757,3.4766,3.4766,3.4789,3.4787,3.4801,3.4806,3.4805,3.4791,3.4813,3.482,3.4875,3.4913,3.4839,3.4843,3.502,3.5024,3.5028,3.5086,0,0,0,0,0,0,3.4707,3.4718,3.4745,3.4758,3.4768,3.4841,3.4791,3.479,3.4807,3.4802,3.4819,3.4819,3.4812,3.4869,3.4878,3.4917,3.4846,3.5016,3.5022,3.5026,3.508,3.5091,3.51,0,0,0,0,0,3.4703,3.4759,3.4746,3.4756,3.4801,3.4843,3.4849,3.4839,3.481,3.4838,3.4841,3.4819,3.4907,3.4875,3.4885,3.4925,3.5014,3.502,3.5026,3.5076,3.5089,3.51,0,0,0,0,0,0,3.4751,3.4761,3.4746,3.4808,3.4825,3.4836,3.487,3.4853,3.4879,3.4873,3.486,3.4864,3.4922,3.4929,3.4893,3.4997,3.4956,3.4964,3.499,3.5003,3.5013,3.501,3.4849,0,0,0,0,0,3.4768,3.4801,3.4809,3.4863,3.4872,3.487,3.4888,3.4879,3.4896,3.4903,3.491,3.4929,3.4961,3.4982,3.5012,3.5081,3.5085,3.5114,3.5124,3.5132,3.514,3.518,3.5193,3.5049,3.5049,3.5049,0,0,3.4805,3.4815,3.4836,3.4872,3.4885,3.492,3.4876,3.4915,3.4942,3.4909,3.4961,3.4968,3.4987,3.505,3.5078,3.5058,3.5181,3.514,3.5147,3.515,3.5187,3.5201,3.5213,3.5053,3.5053,3.5052,0,0,3.4891,3.4901,3.4948,3.4961,3.498,3.4979,3.499,3.5004,3.5007,3.506,3.5036,3.5069,3.5124,3.5139,3.5154,3.5249,3.523,3.5259,3.5312,3.5351,3.5362,3.5372,3.5407,3.542,3.5266,3.5267,3.5267,0,3.4934,3.4986,3.4974,3.5016,3.5033,3.5005,3.5054,3.5068,3.5096,3.5109,3.5086,3.5156,3.5167,3.5234,3.5258,3.527,3.5284,3.5257,3.5361,3.5371,3.538,3.5414,3.5427,3.527,3.527,3.5269,3.5269,0,3.504,3.5077,3.5113,3.5141,3.5163,3.5207,3.5203,3.5227,3.5216,3.5218,3.5273,3.5286,3.5318,3.5334,3.5323,3.54,3.5387,3.5363,3.5321,3.5398,3.5429,3.5442,3.5275,3.5274,3.5273,3.5272,0,0,3.5156,3.5178,3.5192,3.5205,3.5225,3.5254,3.5299,3.5331,3.5352,3.5373,3.5411,3.5459,3.5438,3.5455,3.5447,3.548,3.5557,3.5452,3.5452,3.5472,3.5645,3.5664,3.5679,3.5544,3.5547,3.5549,3.5644,0,3.5243,3.532,3.5311,3.5385,3.542,3.5395,3.5434,3.5452,3.5455,3.5486,3.549,3.5525,3.5492,3.5503,3.5535,3.5541,3.5592,3.5534,3.5581,3.5583,3.5578,3.5695,3.5715,3.5804,3.5656,3.5658,3.5659,0,3.5355,3.538,3.5458,3.5475,3.5489,3.5524,3.5554,3.5584,3.5604,3.5604,3.5625,3.5611,3.5658,3.5615,3.568,3.5641,3.566,3.5666,3.5669,3.5674,3.5626,3.5704,3.5832,3.5846,3.5678,3.5677,3.5675,0,3.5434,3.5487,3.5541,3.5553,3.5574,3.56,3.5609,3.5627,3.5648,3.5674,3.5688,3.5719,3.5737,3.5763,3.5759,3.5728,3.5826,3.5782,3.5829,3.5829,3.5851,3.585,3.5985,3.5861,3.5861,3.5861,3.5861,0,3.5533,3.5581,3.5577,3.561,3.5665,3.5655,3.571,3.5717,3.5733,3.5769,3.5749,3.5783,3.5775,3.5809,3.5806,3.5862,3.5869,3.5872,3.5871,3.5874,3.5874,3.5887,3.5881,3.5864,3.5864,3.5863,3.5862,0,3.563,3.5629,3.5686,3.5701,3.5707,3.5746,3.576,3.5792,3.5794,3.5839,3.5849,3.5853,3.5892,3.5891,3.5935,3.5933,3.6002,3.5993,3.5995,3.5994,3.6041,3.6037,3.619,3.621,3.6073,3.6074,3.6075,0,3.5694,3.5731,3.5751,3.5773,3.5784,3.582,3.5842,3.5834,3.5857,3.5884,3.5914,3.5951,3.5981,3.6045,3.6052,3.6087,3.6079,3.613,3.6084,3.6087,3.6082,3.608,3.6085,3.614,3.6141,3.6143,3.6144,0,3.5808,3.5806,3.5837,3.5869,3.5895,3.592,3.5942,3.5962,3.5957,3.5985,3.6024,3.6048,3.6093,3.6132,3.6165,3.6176,3.616,3.6158,3.6171,3.6175,3.6176,3.6178,3.6022,3.6155,3.6154,3.6153,3.6152,3.6152,3.5891,3.5924,3.5944,3.598,3.5996,3.6018,3.605,3.6056,3.6089,3.6126,3.612,3.6165,3.6187,3.623,3.6245,3.6281,3.6263,3.6281,3.6286,3.6291,3.6297,3.6169,3.6287,3.6286,3.6286,3.6286,3.6286,0,3.6006,3.6017,3.6051,3.6083,3.6113,3.6094,3.6119,3.6145,3.6185,3.6206,3.6236,3.6283,3.632,3.6331,3.6368,3.6395,3.6389,3.6405,3.6403,3.6407,3.631,3.6296,3.6409,3.6409,3.6409,3.6409,3.6409,3.6409,3.6069,3.6124,3.6125,3.6189,3.62,3.6244,3.626,3.6281,3.6298,3.6352,3.6383,3.6389,3.6407,3.6445,3.6479,3.6481,3.6497,3.6516,3.6516,3.6425,3.6413,3.6401,3.6388,3.6519,3.6519,3.661,3.6611,3.6611]},{"header":{"parameterUnit":"m.s-1","parameterCategory":1,"la1":30.2991,"la2":30.254,"lo1":-89.0895,"lo2":-89.0444,"dy":0.0017,"dx":0.0017,"nx":28,"ny":28,"refTime":"2024-07-28T21:00:00:Z","depth":0,"parameterNumber":3,"parameterNumberName":"V-component_of_WINDS"},"data":[0,0,0,0,0,0,0,0,0,0,0,0,0,0,0,0,0,0,0,0,0,0,0,0,0,0,0,0,0,0,0,0,0,0,0,0,0,0,0,0,0,0,0,0,0,0,0,0,0,0,0,0,0,0,0,0,0,0,-0.9362,-0.9363,0,-0.9388,-0.9388,-0.9388,-0.94,-0.94,-0.94,-0.94,-0.9425,-0.9426,-0.9427,0,0,0,0,0,0,0,0,0,0,0,0,0,-0.9324,-0.9325,-0.9362,-0.9363,-0.9363,-0.9388,-0.9388,-0.9389,-0.94,-0.94,-0.94,-0.94,-0.9425,-0.9426,-0.9427,0,0,0,0,0,0,0,0,0,0,0,0,0,-0.9344,-0.9325,-0.9362,-0.9372,-0.9373,-0.9388,-0.9388,-0.9389,-0.94,-0.94,-0.94,-0.94,-0.9425,-0.9426,-0.9427,-0.9435,0,0,-0.943,-0.9431,0,0,0,0,0,0,0,0,-0.9343,-0.9346,-0.937,-0.9371,-0.9372,-0.9391,-0.9384,-0.9404,-0.94,-0.9389,-0.94,-0.94,-0.9414,-0.9416,-0.9421,-0.9436,-0.9437,-0.943,-0.9431,-0.9431,-0.9432,0,0,0,0,0,0,0,-0.9342,-0.9345,-0.9372,-0.937,-0.9372,-0.9375,-0.9378,-0.9388,-0.9402,-0.939,-0.9391,-0.9394,-0.9414,-0.942,-0.9421,-0.9437,-0.943,-0.9431,-0.9432,-0.9432,-0.9462,-0.9462,0,0,0,0,0,0,-0.9339,-0.9344,-0.9372,-0.9373,-0.9357,-0.9376,-0.9379,-0.9385,-0.9401,-0.9404,-0.9394,-0.9395,-0.9418,-0.942,-0.9422,-0.9434,-0.9431,-0.9432,-0.9433,-0.9462,-0.9462,-0.9463,0,0,0,0,0,0,-0.9338,-0.9341,-0.9371,-0.9359,-0.9363,-0.9376,-0.9383,-0.9385,-0.939,-0.9404,-0.9407,-0.9397,-0.9418,-0.9421,-0.9432,-0.9435,-0.9433,-0.9434,-0.9462,-0.9462,-0.9462,-0.9456,0,0,0,0,0,0,-0.9337,-0.9341,-0.9344,-0.9359,-0.9363,-0.9379,-0.9383,-0.9386,-0.9392,-0.9393,-0.9408,-0.941,-0.9418,-0.943,-0.9433,-0.9436,-0.9435,-0.9462,-0.9462,-0.9462,-0.9456,-0.9456,-0.9456,0,0,0,0,0,-0.9336,-0.934,-0.9344,-0.9347,-0.9367,-0.938,-0.9382,-0.9391,-0.9392,-0.9396,-0.9405,-0.9409,-0.9434,-0.9431,-0.9434,-0.9438,-0.9462,-0.9462,-0.9462,-0.9456,-0.9456,-0.9456,0,0,0,0,0,0,-0.9324,-0.9342,-0.9346,-0.9356,-0.9366,-0.9381,-0.9385,-0.9391,-0.9401,-0.9401,-0.9412,-0.9415,-0.9426,-0.9433,-0.943,-0.9448,-0.9448,-0.9449,-0.9442,-0.9442,-0.9442,-0.944,-0.9436,0,0,0,0,0,-0.9323,-0.9332,-0.9347,-0.9354,-0.9359,-0.9371,-0.9377,-0.9384,-0.9395,-0.9399,-0.9409,-0.942,-0.943,-0.9437,-0.9447,-0.9457,-0.9461,-0.9461,-0.9461,-0.9461,-0.9462,-0.947,-0.947,-0.9464,-0.9464,-0.9464,0,0,-0.932,-0.9331,-0.9336,-0.9352,-0.9361,-0.937,-0.9375,-0.9384,-0.9391,-0.94,-0.9412,-0.942,-0.9433,-0.9444,-0.945,-0.945,-0.9465,-0.9462,-0.9461,-0.9462,-0.947,-0.9471,-0.9471,-0.9464,-0.9464,-0.9464,0,0,-0.932,-0.9328,-0.9336,-0.9345,-0.9359,-0.9368,-0.9369,-0.9385,-0.939,-0.9402,-0.941,-0.9419,-0.9436,-0.9446,-0.9453,-0.9459,-0.9464,-0.9462,-0.9461,-0.9469,-0.9469,-0.947,-0.9473,-0.9474,-0.9462,-0.9462,-0.9462,0,-0.9314,-0.9328,-0.9339,-0.9349,-0.9356,-0.9366,-0.9374,-0.9383,-0.9399,-0.9404,-0.9405,-0.9428,-0.9437,-0.9452,-0.9454,-0.9459,-0.9462,-0.946,-0.9468,-0.9469,-0.947,-0.9473,-0.9474,-0.9462,-0.9462,-0.9462,-0.9462,0,-0.9322,-0.9332,-0.9336,-0.9353,-0.9361,-0.937,-0.9382,-0.9389,-0.9396,-0.9405,-0.9418,-0.943,-0.9443,-0.9447,-0.9453,-0.9463,-0.9463,-0.9466,-0.9467,-0.947,-0.9473,-0.9474,-0.9462,-0.9462,-0.9462,-0.9462,0,0,-0.9313,-0.9337,-0.9339,-0.9347,-0.9364,-0.9372,-0.9382,-0.9396,-0.9403,-0.9414,-0.9423,-0.9439,-0.9442,-0.945,-0.9458,-0.9464,-0.947,-0.9466,-0.9467,-0.9467,-0.9484,-0.9482,-0.9483,-0.9474,-0.9474,-0.9474,-0.9483,0,-0.9316,-0.9334,-0.9345,-0.9359,-0.937,-0.938,-0.9389,-0.9401,-0.941,-0.942,-0.9431,-0.9442,-0.9445,-0.945,-0.9457,-0.9468,-0.9474,-0.9467,-0.9483,-0.9484,-0.948,-0.9485,-0.9482,-0.949,-0.9484,-0.9484,-0.9485,0,-0.9321,-0.9333,-0.9348,-0.9366,-0.9371,-0.9379,-0.9394,-0.9403,-0.9417,-0.9424,-0.9434,-0.9442,-0.9454,-0.9455,-0.9472,-0.9468,-0.9475,-0.9482,-0.9482,-0.9484,-0.9484,-0.9487,-0.9492,-0.9493,-0.9487,-0.9486,-0.9486,0,-0.9314,-0.9335,-0.9347,-0.9354,-0.9375,-0.938,-0.9389,-0.9403,-0.9412,-0.9425,-0.9431,-0.9445,-0.9453,-0.9464,-0.9476,-0.9475,-0.9493,-0.9494,-0.9499,-0.9499,-0.9502,-0.9502,-0.9509,-0.9506,-0.9506,-0.9506,-0.9506,0,-0.9316,-0.9325,-0.9345,-0.9352,-0.9364,-0.9377,-0.9388,-0.9397,-0.9411,-0.9421,-0.9431,-0.944,-0.9455,-0.9467,-0.9477,-0.9491,-0.9494,-0.95,-0.9502,-0.9499,-0.9499,-0.9504,-0.9504,-0.9506,-0.9506,-0.9506,-0.9506,0,-0.931,-0.9324,-0.9338,-0.9357,-0.9362,-0.937,-0.9387,-0.9395,-0.9406,-0.9419,-0.9422,-0.9439,-0.9453,-0.9467,-0.9486,-0.9492,-0.9507,-0.951,-0.9502,-0.9503,-0.9508,-0.9508,-0.9519,-0.9522,-0.9517,-0.9517,-0.9517,0,-0.931,-0.9318,-0.9339,-0.9347,-0.9356,-0.9368,-0.9377,-0.9391,-0.94,-0.9419,-0.9425,-0.9441,-0.9454,-0.9477,-0.9491,-0.9506,-0.951,-0.9513,-0.9512,-0.9509,-0.9511,-0.951,-0.9512,-0.9512,-0.9512,-0.9512,-0.9512,0,-0.931,-0.9317,-0.9329,-0.9345,-0.9356,-0.9369,-0.9382,-0.9388,-0.9405,-0.9415,-0.943,-0.9441,-0.9461,-0.9477,-0.9494,-0.9504,-0.9512,-0.9513,-0.9515,-0.9512,-0.9508,-0.9511,-0.9502,-0.9512,-0.9512,-0.9512,-0.9512,-0.9512,-0.9308,-0.9316,-0.9332,-0.9347,-0.9358,-0.9371,-0.938,-0.9393,-0.9406,-0.9424,-0.9432,-0.9448,-0.9464,-0.9488,-0.9498,-0.9512,-0.9513,-0.9516,-0.9517,-0.9517,-0.9517,-0.9505,-0.9515,-0.9515,-0.9515,-0.9515,-0.9515,0,-0.9308,-0.932,-0.9333,-0.9352,-0.9364,-0.9371,-0.9386,-0.9396,-0.941,-0.9425,-0.9438,-0.9457,-0.9473,-0.9489,-0.9506,-0.9514,-0.9518,-0.9518,-0.9518,-0.952,-0.9515,-0.9511,-0.9515,-0.9515,-0.9515,-0.9515,-0.9515,-0.9515,-0.931,-0.9324,-0.9334,-0.9355,-0.9366,-0.9382,-0.9391,-0.9403,-0.9416,-0.9436,-0.945,-0.946,-0.9476,-0.9495,-0.9511,-0.9515,-0.9521,-0.9521,-0.9526,-0.952,-0.952,-0.952,-0.9517,-0.9522,-0.9522,-0.953,-0.9531,-0.9531]}]]